Location: Nagoya
(35.1814°N, 136.9064°E)
Time: 23:53:09
(UTC+09:00)

X-37B - Visible Passes

Search period start: 29 September 2022 00:00
Search period end: 09 October 2022 00:00
Orbit: 330 x 340 km, 45.0° (Epoch: 02 September)

Date Brightness Start Highest point End Pass type
(mag) Time Alt. Az. Time Alt. Az. Time Alt. Az.
29 Sep 2.9 04:15:06 14° N 04:15:06 14° N 04:16:32 10° NNE visible
30 Sep 3.0 04:34:41 10° NNW 04:35:49 12° N 04:36:58 10° NNE visible
01 Oct 3.0 04:55:11 10° NNW 04:56:40 13° N 04:58:11 10° NE visible
02 Oct 2.6 05:15:18 10° NNW 05:17:29 19° NNE 05:19:39 10° ENE visible
03 Oct 3.2 04:02:20 13° NNE 04:02:20 13° NNE 04:03:35 10° NE visible
04 Oct 2.6 04:22:04 17° N 04:22:54 19° NNE 04:25:04 10° ENE visible
05 Oct 1.6 04:41:54 19° NW 04:43:33 37° NNE 04:46:16 10° E visible
06 Oct 0.2 05:01:50 15° WNW 05:04:03 73° SSW 05:06:54 10° SE visible
07 Oct 3.2 03:50:38 19° E 03:50:38 19° E 03:51:41 10° E visible
07 Oct 1.9 05:22:03 10° W 05:24:21 21° SW 05:26:37 10° SSE visible
08 Oct 2.1 04:10:49 28° SE 04:10:49 28° SE 04:12:19 10° SE visible
